Location: Pilipovskiye Korichintsy
(49.1833°N, 27.4667°E)
Time: 22:13:21
(UTC+00:00)

CZ-2D R/B - Pass Details

Date: 14 July 2020
Orbit: 552 x 639 km, 97.9° (Epoch: 10 August)

Event Time Altitude Azimuth Distance (km) Brightness Sun altitude
Rises 01:00:35 0° 17° (NNE) 2,938 8.5 -10.3°
Reaches altitude 10° 01:02:52 10° 23° (NNE) 2,016 7.6 -10.1°
Maximum altitude 01:07:09 50° 99° (E) 796 4.3 -9.6°
Drops below altitude 10° 01:11:17 10° 175° (S) 1,954 5.7 -9.2°
Enters shadow 01:12:30 - 179° (S) 2,443 6.2 -9.1°
